Location: Emblem
(62.4273°N, 6.4710°E)
Time: 01:40:41
(UTC+02:00)

UWE-3 - Pass Details

Date: 30 March 2023
Orbit: 577 x 669 km, 97.7° (Epoch: 06 June)

Event Time Altitude Azimuth Distance (km) Brightness Sun altitude
Rises 02:49:56 0° 23° (NNE) 3,016 ? -22.6°
Reaches altitude 10° 02:53:43 10° 55° (NE) 2,079 ? -22.4°
Maximum altitude 02:55:25 12° 77° (ENE) 1,941 ? -22.4°
Drops below altitude 10° 02:57:05 10° 99° (E) 2,051 ? -22.3°
Enters shadow 02:59:22 - 122° (ESE) 2,527 ? -22.2°
